Regional Weather Roundup
Issued by NWS Newport/Morehead, NC

Current Version | Previous Version | Graphics & Text | Print | Product List | Glossary Off
Versions: 1 2 3 4 5 6 7 8 9 10 11 12 13 14 15 16 17 18 19 20 21 22 23 24 25 26 27 28 29 30 31 32 33 34 35 36 37 38 39 40 41 42 43 44 45 46 47 48 49 50

000
ASUS42 KMHX 280526
RWRMHX
WEATHER ROUNDUP FOR EASTERN NORTH CAROLINA
NATIONAL WEATHER SERVICE NEWPORT/MOREHEAD CITY NC
100 AM EDT FRI AUG 28 2015

NOTE: "FAIR" INDICATES FEW OR NO CLOUDS BELOW 12,000 FEET
WITH NO SIGNIFICANT WEATHER AND/OR OBSTRUCTIONS TO VISIBILITY

NCZ015>017-031-032-045>047-102-103-280600-
NORTH COAST

CITY           SKY/WX    TMP DP  RH WIND       PRES   REMARKS
EDENTON        CLOUDY    68  63  82 CALM      30.12S
ELIZABETH CITY CLOUDY    73  64  73 N6        30.12S
KITTY HAWK     CLOUDY    75  61  60 NE7G17    30.10S
MANTEO         MOCLDY    74  62  66 NE9       30.11R

$$

NCZ045>047-081-094-103-104-280600-
CENTRAL COAST

CITY           SKY/WX    TMP DP  RH WIND       PRES   REMARKS
FRISCO         PTCLDY    73  69  87 NE9       30.07S
SWANQUARTER    NOT AVBL

$$

NCZ095-097-098-100-101-280600-
SOUTHERN COAST

CITY           SKY/WX    TMP DP  RH WIND       PRES   REMARKS
BEAUFORT       MOCLDY    71  69  93 NE7       30.08R
CEDAR ISLAND   NOT AVBL
JACKSONVILLE   CLOUDY    70  63  78 N5        30.09R
PINEY ISLAND   PTCLDY   N/A N/A N/A NE14G22   30.08R
WILMINGTON     CLOUDY    70  66  87 NE8       30.08R


$$

NCZ011>013-027>030-043-044-078>080-089-090>093-098-280600-
COASTAL PLAIN

CITY           SKY/WX    TMP DP  RH WIND       PRES   REMARKS
AHOSKIE        MOCLDY    65  63  91 CALM      30.14S
CLINTON        MOCLDY    69  66  89 CALM      30.12R
ELIZABETHTOWN  MOCLDY    69  64  85 CALM      30.11R
GOLDSBORO      PTCLDY    68  64  86 NE6       30.11R
GREENVILLE     MOCLDY    66  64  94 CALM      30.13S
HAVELOCK       MOCLDY    72  65  78 NE10      30.10R
KENANSVILLE      N/A     67  65  91 CALM      30.12S
KINSTON        CLOUDY    68  65  89 CALM      30.12S
NEW BERN       MOCLDY    70  63  78 NE5       30.11R
RICHLANDS      CLOUDY    68  61  77 N3        30.10S
ROCKY MOUNT    PTCLDY    65  62  90 CALM      30.13S
WASHINGTON     CLOUDY    69  64  83 NE7       30.11S
WHITEVILLE     CLOUDY    70  65  84 CALM      30.10R

$$

AMZ130-135-150-152-154-156-158-170-250-252-270-ANZ085-086-088-633-658-670-280600-
MARINE OBSERVATIONS

STATION/POSITION TIME  TEMP    WIND        PRES    WAVE   SWELL
                       AIR SEA DIR/SP/G            HT/PER HT/PER
                 (UTC) (F)     (DEG/KT/KT) (MB)    (FT/S) (FT/S)
CHESAPEAKE LIGHT 0500   75      40/  8/ 10 1020.8
64 E VA BEACH    0450   77 78   30/ 12/ 14 1019.5    3/ 9   3/ 9
DUCK             0500   76 78   50/ 14/ 16 1019.0
2 E DUCK         0411      78                N/A     3/ 8   2/11
OREGON INLET     0500   76 78   20/ 14/ 19 1018.8
13E OREGON INLT  0500      79                N/A     5/ 8   2/12
HATTERAS CG      0500   76 80   50/  7/ 13 1018.1
DIAMOND BUOY     0450   78 83   30/ 16/ 19 1017.9    4/ 9   3/ 9
CAPE LOOKOUT     0500   78      40/ 15/ 16 1018.2
BEAUFORT LAB     0500   73 80   20/  6/  9 1018.0
30 SE NEW RVR IN 0408   78 82   50/ 10/ 16 1018.2
30 SE NEW RVR IN 0425      82                N/A     3/ 6
27 SE WRIGHTSVLE 0500   75 82   60/ 10/ 12   N/A
5 SE WRIGHTSVLE  0408   77 82   40/ 16/ 21 1017.8
225 S CAPE HAT   0450   78 83   70/  6/  6 1016.8    3/ 8   3/ 8
41 SE CHARLESTON 0450   82 85   90/  2/  4 1016.7    3/ 9   2/ 9

$$


USA.gov is the U.S. government's official web portal to all federal, state and local government web resources and services.